Location: Shenandoah County Park
(38.9356°N, 78.4524°W)
Time: 05:48:06
(UTC-04:00)

Vanguard 1 Rocket - Pass Details

Date: 13 February 2023
Orbit: 652 x 4223 km, 34.3° (Epoch: 26 March)

Event Time Altitude Azimuth Distance (km) Brightness Sun altitude
Rises 12:41:56 0° 268° (W) 4,018 10.8 37.7°
Reaches altitude 10° 12:44:07 10° 266° (W) 3,327 10.5 37.7°
Maximum altitude 12:52:42 69° 185° (S) 2,106 10.5 37.5°
Drops below altitude 10° 13:10:05 10° 107° (ESE) 6,291 11.8 36.9°
Sets 13:16:05 0° 106° (ESE) 7,775 12.2 36.6°
